| time (UTC) | temp C | wind direction | speed KPH | gust KPH | rain 1hr cm | rain 24hr cm | rain mn cm | humidity % | barometer mb |
| 20260506141603 | 10 | 0 | 0.0 | 3.2 | 0.00 | 0.00 | 0.00 | 42 | 1012.0 |
| 20260506140101 | 10 | 0 | 0.0 | 1.6 | 0.00 | 0.00 | 0.00 | 45 | 1011.9 |
| 20260506134556 | 9 | 0 | 0.0 | 1.6 | 0.00 | 0.13 | 0.00 | 47 | 1011.7 |
| 20260506133127 | 9 | 0 | 0.0 | 1.6 | 0.00 | 0.13 | 0.00 | 50 | 1011.4 |
| 20260506131555 | 8 | 360 | 0.0 | 0.0 | 0.00 | 0.13 | 0.00 | 55 | 1011.2 |
| 20260506130121 | 8 | 0 | 0.0 | 0.0 | 0.00 | 0.13 | 0.00 | 60 | 1011.4 |
| 20260506124554 | 7 | 0 | 0.0 | 0.0 | 0.00 | 0.33 | 0.00 | 64 | 1011.1 |
| 20260506123050 | 7 | 0 | 0.0 | 1.6 | 0.00 | 0.33 | 0.00 | 66 | 1011.0 |
| 20260506121553 | 6 | 0 | 0.0 | 1.6 | 0.00 | 0.33 | 0.00 | 69 | 1010.8 |
| 20260506120053 | 5 | 0 | 0.0 | 0.0 | 0.00 | 0.33 | 0.00 | 71 | 1010.8 |
| 20260506114556 | 5 | 0 | 0.0 | 0.0 | 0.00 | 0.36 | 0.00 | 73 | 1010.8 |
| 20260506113050 | 4 | 0 | 0.0 | 0.0 | 0.00 | 0.36 | 0.00 | 73 | 1010.6 |
| 20260506111553 | 4 | 0 | 0.0 | 1.6 | 0.00 | 0.36 | 0.00 | 74 | 1010.4 |
| 20260506110051 | 4 | 0 | 0.0 | 0.0 | 0.00 | 0.36 | 0.00 | 74 | 1010.3 |
| 20260506104614 | 4 | 0 | 0.0 | 0.0 | 0.00 | 0.36 | 0.00 | 73 | 1010.0 |
| 20260506103052 | 4 | 0 | 0.0 | 0.0 | 0.00 | 0.36 | 0.00 | 71 | 1009.7 |
| 20260506101553 | 5 | 0 | 0.0 | 0.0 | 0.00 | 0.36 | 0.00 | 70 | 1009.5 |
| 20260506100055 | 5 | 0 | 0.0 | 0.0 | 0.00 | 0.36 | 0.00 | 68 | 1009.6 |
| 20260506094552 | 5 | 0 | 0.0 | 0.0 | 0.00 | 0.36 | 0.00 | 66 | 1009.6 |
| 20260506093052 | 5 | 0 | 0.0 | 0.0 | 0.00 | 0.36 | 0.00 | 65 | 1009.8 |
| 20260506091555 | 5 | 0 | 0.0 | 0.0 | 0.00 | 0.36 | 0.00 | 65 | 1009.5 |
| 20260506090057 | 6 | 0 | 0.0 | 0.0 | 0.00 | 0.36 | 0.00 | 63 | 1009.7 |
| 20260506084553 | 6 | 0 | 0.0 | 0.0 | 0.00 | 0.36 | 0.00 | 60 | 1009.6 |
| 20260506083058 | 6 | 0 | 0.0 | 0.0 | 0.00 | 0.36 | 0.00 | 57 | 1009.5 |
| 20260506081558 | 7 | 0 | 0.0 | 1.6 | 0.00 | 0.36 | 0.00 | 56 | 1009.5 |
| 20260506073054 | 7 | 0 | 0.0 | 1.6 | 0.00 | 0.36 | 0.00 | 54 | 1009.1 |
| 20260506071606 | 8 | 0 | 0.0 | 1.6 | 0.00 | 0.36 | 0.00 | 54 | 1009.0 |
| 20260506061551 | 9 | 0 | 0.0 | 4.8 | 0.00 | 0.36 | 0.00 | 48 | 1008.9 |
| 20260506044608 | 11 | 288 | 0.0 | 3.2 | 0.00 | 0.36 | 0.36 | 43 | 1008.3 |
| 20260506043056 | 11 | 0 | 0.0 | 6.4 | 0.00 | 0.36 | 0.36 | 42 | 1008.4 |
| 20260506041555 | 11 | 0 | 0.0 | 3.2 | 0.00 | 0.36 | 0.36 | 45 | 1008.4 |
| 20260506040052 | 11 | 259 | 0.0 | 4.8 | 0.00 | 0.36 | 0.36 | 46 | 1008.6 |
| 20260506034557 | 11 | 0 | 0.0 | 1.6 | 0.00 | 0.36 | 0.36 | 47 | 1008.2 |
| 20260506033056 | 11 | 248 | 0.0 | 0.0 | 0.00 | 0.36 | 0.36 | 46 | 1008.3 |
| 20260506031555 | 11 | 0 | 0.0 | 3.2 | 0.00 | 0.36 | 0.36 | 46 | 1007.9 |
| 20260506030054 | 11 | 0 | 0.0 | 3.2 | 0.00 | 0.36 | 0.36 | 46 | 1007.8 |
| 20260506024549 | 11 | 0 | 0.0 | 1.6 | 0.00 | 0.36 | 0.36 | 46 | 1007.8 |
| 20260506023056 | 11 | 259 | 0.0 | 1.6 | 0.00 | 0.36 | 0.36 | 46 | 1007.8 |
| 20260506021558 | 11 | 0 | 0.0 | 1.6 | 0.00 | 0.36 | 0.36 | 46 | 1007.6 |
| 20260506020050 | 11 | 0 | 0.0 | 1.6 | 0.00 | 0.36 | 0.36 | 44 | 1007.5 |
| 20260506014551 | 11 | 0 | 0.0 | 1.6 | 0.00 | 0.36 | 0.36 | 44 | 1007.2 |
| 20260506013051 | 11 | 0 | 0.0 | 0.0 | 0.00 | 0.36 | 0.36 | 43 | 1007.1 |
| 20260506011554 | 12 | 0 | 0.0 | 1.6 | 0.00 | 0.36 | 0.36 | 41 | 1006.8 |
| 20260506010056 | 12 | 0 | 0.0 | 1.6 | 0.00 | 0.36 | 0.36 | 41 | 1006.6 |
| 20260506004548 | 12 | 0 | 0.0 | 8.0 | 0.00 | 0.36 | 0.36 | 39 | 1006.5 |
| 20260506003054 | 12 | 293 | 0.0 | 4.8 | 0.00 | 0.36 | 0.36 | 39 | 1006.3 |
| 20260506001604 | 12 | 0 | 0.0 | 6.4 | 0.00 | 0.36 | 0.36 | 38 | 1006.4 |
| 20260506000053 | 12 | 0 | 0.0 | 8.0 | 0.00 | 0.36 | 0.36 | 38 | 1006.1 |
| 20260505234610 | 12 | 0 | 0.0 | 8.0 | 0.00 | 0.36 | 0.36 | 38 | 1006.2 |
| 20260505233051 | 12 | 262 | 0.0 | 4.8 | 0.00 | 0.36 | 0.36 | 37 | 1006.5 |
| 20260505231551 | 13 | 46 | 1.6 | 6.4 | 0.00 | 0.36 | 0.36 | 36 | 1006.4 |
| 20260505230053 | 13 | 273 | 0.0 | 4.8 | 0.00 | 0.36 | 0.36 | 37 | 1006.4 |
| 20260505224552 | 13 | 285 | 0.0 | 3.2 | 0.00 | 0.36 | 0.36 | 37 | 1006.5 |
| 20260505223104 | 13 | 243 | 1.6 | 11.3 | 0.00 | 0.36 | 0.36 | 35 | 1006.7 |
| 20260505221551 | 13 | 0 | 1.6 | 9.7 | 0.00 | 0.36 | 0.36 | 35 | 1006.5 |
| 20260505220055 | 13 | 293 | 1.6 | 8.0 | 0.00 | 0.36 | 0.36 | 33 | 1006.8 |
| 20260505214555 | 13 | 269 | 0.0 | 8.0 | 0.00 | 0.36 | 0.36 | 34 | 1006.8 |
| 20260505213054 | 13 | 274 | 3.2 | 9.7 | 0.00 | 0.36 | 0.36 | 33 | 1006.9 |
| 20260505211605 | 13 | 346 | 0.0 | 8.0 | 0.00 | 0.36 | 0.36 | 37 | 1006.7 |
| 20260505210054 | 13 | 319 | 3.2 | 9.7 | 0.00 | 0.36 | 0.36 | 34 | 1006.7 |
| 20260505204547 | 12 | 0 | 0.0 | 6.4 | 0.00 | 0.36 | 0.36 | 36 | 1006.8 |
| 20260505203116 | 12 | 245 | 1.6 | 8.0 | 0.00 | 0.36 | 0.36 | 35 | 1007.1 |
| 20260505201552 | 12 | 288 | 0.0 | 12.9 | 0.00 | 0.36 | 0.36 | 35 | 1007.1 |
| 20260505200053 | 12 | 0 | 0.0 | 4.8 | 0.00 | 0.36 | 0.36 | 38 | 1007.2 |
| 20260505194554 | 13 | 0 | 1.6 | 11.3 | 0.00 | 0.36 | 0.36 | 36 | 1007.1 |
| 20260505193052 | 13 | 280 | 0.0 | 4.8 | 0.00 | 0.36 | 0.36 | 39 | 1007.2 |
| 20260505191557 | 13 | 0 | 0.0 | 8.0 | 0.00 | 0.36 | 0.36 | 38 | 1007.3 |
| 20260505190051 | 13 | 0 | 1.6 | 11.3 | 0.00 | 0.36 | 0.36 | 39 | 1007.3 |
| 20260505184600 | 13 | 285 | 1.6 | 9.7 | 0.00 | 0.36 | 0.36 | 38 | 1007.3 |
| 20260505183059 | 13 | 241 | 3.2 | 12.9 | 0.00 | 0.36 | 0.36 | 36 | 1007.2 |
| 20260505181556 | 13 | 289 | 0.0 | 4.8 | 0.00 | 0.36 | 0.36 | 36 | 1007.2 |
| 20260505174548 | 13 | 258 | 1.6 | 8.0 | 0.00 | 0.36 | 0.36 | 36 | 1007.0 |
| 20260505173056 | 13 | 294 | 1.6 | 6.4 | 0.00 | 0.36 | 0.36 | 39 | 1006.9 |
| 20260505171555 | 13 | 258 | 1.6 | 8.0 | 0.00 | 0.36 | 0.36 | 42 | 1006.9 |
| 20260505170052 | 13 | 295 | 0.0 | 6.4 | 0.00 | 0.36 | 0.36 | 42 | 1006.9 |
| 20260505164550 | 12 | 0 | 0.0 | 9.7 | 0.00 | 0.36 | 0.36 | 44 | 1006.8 |
| 20260505163052 | 12 | 318 | 1.6 | 6.4 | 0.00 | 0.36 | 0.36 | 46 | 1007.1 |
| 20260505161548 | 12 | 300 | 1.6 | 6.4 | 0.00 | 0.36 | 0.36 | 45 | 1006.8 |
| 20260505153053 | 11 | 0 | 1.6 | 8.0 | 0.00 | 0.36 | 0.36 | 56 | 1006.6 |
| 20260505151551 | 10 | 289 | 0.0 | 6.4 | 0.00 | 0.36 | 0.36 | 61 | 1006.8 |